Regional Weather Roundup
Issued by NWS

Home | Current Version | Previous Version | Graphics & Text | Print | Product List | Glossary On
Versions: 1 2 3 4 5 6 7 8 9 10 11 12 13 14 15 16 17 18 19 20 21 22 23 24 25 26 27 28 29 30 31 32 33 34 35 36 37 38 39 40 41 42 43 44 45 46 47 48 49 50
915
ASUS43 KTOP 222359
RWRKS

WEATHER ROUNDUP FOR KANSAS
NATIONAL WEATHER SERVICE GOODLAND KS
700 PM CDT FRI SEP 22 2017

NOTE:  "FAIR" INDICATES FEW OR NO CLOUDS BELOW 12,000 FEET WITH NO
SIGNIFICANT WEATHER AND/OR OBSTRUCTIONS TO VISIBILITY.

KSZ001>006-013>018-027>032-041>047-230100-
NORTHWEST KANSAS

CITY           SKY/WX    TMP DP  RH WIND       PRES   REMARKS
GOODLAND       PTCLDY    86  55  34 S16G25    29.75S
6HR MIN TEMP:  86; 6HR MAX TEMP:  93;

HAYS           CLEAR     90  61  37 MISG      29.78R
HILL CITY      MOCLDY    92  56  29 S22G31    29.75R
6HR MIN TEMP:  92; 6HR MAX TEMP: 100;

RUSSELL        CLEAR     89  62  40 S24       29.79R
6HR MIN TEMP:  89; 6HR MAX TEMP:  98;

$$

KSZ061>065-074>080-084>089-230100-
SOUTHWEST KANSAS

CITY           SKY/WX    TMP DP  RH WIND       PRES   REMARKS
DODGE CITY     CLEAR     88  59  37 S26G35    29.83R
6HR MIN TEMP:  88; 6HR MAX TEMP:  97;

ELKHART          N/A     76  67  74 S8          N/A
GARDEN CITY    CLEAR     89  53  29 S20G31    29.78S
6HR MIN TEMP:  89; 6HR MAX TEMP:  95;

LIBERAL        PTCLDY    86  60  41 S23G30    29.80R
$$

KSZ066>073-081>083-090>101-230100-
SOUTHEAST KANSAS

CITY           SKY/WX    TMP DP  RH WIND       PRES   REMARKS
CHANUTE        CLEAR     83  69  62 S10       29.93S
6HR MIN TEMP:  83; 6HR MAX TEMP:  90;

COFFEYVILLE    CLEAR     84  68  58 S8        29.91S
6HR MIN TEMP:  84; 6HR MAX TEMP:  90;

HUTCHINSON     CLEAR     88  64  44 S21G28    29.84S
6HR MIN TEMP:  88; 6HR MAX TEMP:  96;

MEDICINE LODGE   N/A     87  64  46 S16G28    29.83S
NEWTON         PTCLDY    85  68  56 S16       29.88R
PARSONS        CLEAR     84  68  58 S6        29.94R
6HR MIN TEMP:  84; 6HR MAX TEMP:  91; 6HR PCP: TRACE;

WICHITA INTL   PTCLDY    87  68  52 SE17G24   29.87R
6HR MIN TEMP:  87; 6HR MAX TEMP:  94;

WICHITA JABRA  CLEAR     85  69  58 SE22G28   29.88R
6HR MIN TEMP:  85; 6HR MAX TEMP:  92;

WICHITA MCCONL CLEAR     86  67  52 S17       29.88S
WINFIELD       CLEAR     84  69  60 S20G25    29.91R
6HR MIN TEMP:  84; 6HR MAX TEMP:  93;

$$

KSZ007>012-019>026-033>040-048>060-102>105-230100-
NORTHEAST KANSAS

CITY           SKY/WX    TMP DP  RH WIND       PRES   REMARKS
CONCORDIA      CLEAR     87  66  49 S15G24    29.81S
6HR MIN TEMP:  87; 6HR MAX TEMP:  92;

EMPORIA        CLEAR     84  67  56 S15       29.90R
6HR MIN TEMP:  84; 6HR MAX TEMP:  90;

LAWRENCE       CLEAR     84  70  62 SE10      29.91R
6HR MIN TEMP:  84; 6HR MAX TEMP:  91;

MANHATTAN      CLEAR     89  66  46 S14       29.85R
6HR MIN TEMP:  89; 6HR MAX TEMP:  97;

OLATHE IND     CLEAR     82  69  64 S10       29.94S
6HR MIN TEMP:  82; 6HR MAX TEMP:  89;

OLATHE EXE     CLEAR     80  70  71 S9        29.94S
6HR MIN TEMP:  80; 6HR MAX TEMP:  87;

SALINA         CLEAR     92  63  38 S20G29    29.82R
6HR MIN TEMP:  92; 6HR MAX TEMP:  98;

TOPEKA BILLARD CLEAR     85  69  58 SE12      29.89S
6HR MIN TEMP:  85; 6HR MAX TEMP:  92;

TOPEKA FORBES  CLEAR     86  69  56 SE14      29.90S
6HR MIN TEMP:  86; 6HR MAX TEMP:  92;

$$




USA.gov is the U.S. government's official web portal to all federal, state and local government web resources and services.